When you browse on this site, cookies collect data to enhance your experience and personalize the content and advertising you see.
Visit our Privacy Policy to learn more. By continuing to use the site, you agree to this use of cookies and data.
  • în România
  • Lista ţărilor
  • Pe 7 zile
  • Temperatura apei
  • Meteo pe hartă
  • Widget-uri
  • user-avatar
    Intrare

    Meteo pe oră la Porto Velho

    Astăzi, 20 Februarie, Joi

    Timp Temperatura Precipitaţii Vânt Presiune Umiditate
    00:00 +26°C° 0 mm 1 m/s 749 mmHg 95%
    01:00 +24°C° 0 mm 0 m/s 749 mmHg 95%
    02:00 +24°C° 0 mm 0 m/s 749 mmHg 96%
    03:00 +23°C° 0.2 mm 0 m/s 749 mmHg 96%
    04:00 +23°C° 0.2 mm 0 m/s 748 mmHg 97%
    05:00 +23°C° 0.2 mm 0 m/s 748 mmHg 97%
    06:00 +24°C° 0 mm 0 m/s 749 mmHg 95%
    07:00 +24°C° 0 mm 0 m/s 749 mmHg 93%
    08:00 +25°C° 0 mm 0 m/s 750 mmHg 91%
    09:00 +27°C° 0 mm 0 m/s 750 mmHg 80%
    10:00 +31°C° 0 mm 1 m/s 750 mmHg 70%
    11:00 +33°C° 0 mm 1 m/s 750 mmHg 59%
    12:00 +34°C° 0 mm 1 m/s 749 mmHg 54%
    13:00 +36°C° 0 mm 1 m/s 748 mmHg 49%
    14:00 +37°C° 0 mm 1 m/s 747 mmHg 44%
    15:00 +36°C° 0.2 mm 1 m/s 747 mmHg 53%
    16:00 +34°C° 0.2 mm 1 m/s 747 mmHg 63%
    17:00 +32°C° 0.2 mm 1 m/s 746 mmHg 72%
    18:00 +31°C° 2.2 mm 1 m/s 747 mmHg 79%
    19:00 +29°C° 2.2 mm 1 m/s 748 mmHg 87%
    20:00 +27°C° 2.2 mm 2 m/s 748 mmHg 94%
    21:00 +27°C° 3.9 mm 1 m/s 749 mmHg 95%
    22:00 +27°C° 3.9 mm 1 m/s 749 mmHg 96%
    23:00 +26°C° 3.9 mm 1 m/s 750 mmHg 98%

    Mâine, 21 Februarie, Vineri

    Timp Temperatura Precipitaţii Vânt Presiune Umiditate
    00:00 +26°C° 5.4 mm 1 m/s 750 mmHg 98%
    01:00 +26°C° 5.4 mm 1 m/s 749 mmHg 99%
    02:00 +26°C° 5.4 mm 1 m/s 749 mmHg 99%
    09:00 +28°C° 0 mm 1 m/s 751 mmHg 89%
    10:00 +30°C° 0 mm 1 m/s 751 mmHg 80%
    11:00 +31°C° 0 mm 1 m/s 751 mmHg 71%
    12:00 +32°C° 0.6 mm 1 m/s 750 mmHg 73%
    13:00 +32°C° 0.6 mm 1 m/s 749 mmHg 75%
    14:00 +32°C° 0.6 mm 1 m/s 748 mmHg 77%
    15:00 +31°C° 1.6 mm 1 m/s 748 mmHg 83%
    16:00 +29°C° 1.6 mm 1 m/s 747 mmHg 89%
    17:00 +28°C° 1.6 mm 1 m/s 747 mmHg 94%
    18:00 +27°C° 2.4 mm 1 m/s 748 mmHg 95%
    19:00 +27°C° 2.4 mm 1 m/s 748 mmHg 96%
    20:00 +26°C° 2.4 mm 1 m/s 749 mmHg 97%
    21:00 +26°C° 2 mm 1 m/s 750 mmHg 97%
    22:00 +26°C° 2 mm 1 m/s 750 mmHg 98%
    23:00 +26°C° 2 mm 1 m/s 751 mmHg 98%

    Poimâine, 22 Februarie, Sâmbătă

    Timp Temperatura Precipitaţii Vânt Presiune Umiditate
    00:00 +26°C° 2.3 mm 1 m/s 750 mmHg 98%
    01:00 +26°C° 2.3 mm 1 m/s 750 mmHg 99%
    02:00 +25°C° 2.3 mm 1 m/s 750 mmHg 99%
    03:00 +25°C° 3.3 mm 1 m/s 750 mmHg 99%
    04:00 +25°C° 3.3 mm 1 m/s 750 mmHg 99%
    05:00 +25°C° 3.3 mm 1 m/s 750 mmHg 98%
    06:00 +25°C° 0.4 mm 1 m/s 750 mmHg 98%
    07:00 +25°C° 0.4 mm 1 m/s 751 mmHg 99%
    08:00 +25°C° 0.4 mm 1 m/s 752 mmHg 99%
    09:00 +25°C° 0.6 mm 1 m/s 752 mmHg 98%
    10:00 +25°C° 0.6 mm 1 m/s 752 mmHg 98%
    11:00 +25°C° 0.6 mm 1 m/s 753 mmHg 97%
    12:00 +25°C° 0.1 mm 1 m/s 752 mmHg 96%
    13:00 +26°C° 0.1 mm 1 m/s 751 mmHg 95%
    14:00 +24°C° 0.1 mm 0 m/s 751 mmHg 94%
    15:00 +24°C° 0.2 mm 0 m/s 750 mmHg 95%
    16:00 +23°C° 0.2 mm 0 m/s 750 mmHg 96%
    17:00 +23°C° 0.2 mm 0 m/s 750 mmHg 97%
    18:00 +23°C° 0 mm 0 m/s 750 mmHg 97%
    19:00 +25°C° 0 mm 1 m/s 750 mmHg 98%
    20:00 +24°C° 0 mm 1 m/s 751 mmHg 98%
    21:00 +24°C° 0 mm 1 m/s 751 mmHg 98%
    22:00 +24°C° 0 mm 1 m/s 752 mmHg 98%
    23:00 +24°C° 0 mm 1 m/s 752 mmHg 98%

    23 Februarie, Duminică

    Timp Temperatura Precipitaţii Vânt Presiune Umiditate
    00:00 +23°C° 0 mm 1 m/s 751 mmHg 98%
    01:00 +23°C° 0 mm 1 m/s 751 mmHg 98%
    02:00 +23°C° 0 mm 1 m/s 750 mmHg 98%
    03:00 +23°C° 0.2 mm 1 m/s 750 mmHg 98%
    04:00 +22°C° 0.2 mm 1 m/s 750 mmHg 98%
    05:00 +22°C° 0.2 mm 1 m/s 750 mmHg 98%
    06:00 +22°C° 0 mm 1 m/s 751 mmHg 98%
    07:00 +20°C° 0 mm 0 m/s 751 mmHg 97%
    08:00 +20°C° 0 mm 0 m/s 752 mmHg 97%
    09:00 +20°C° 0.2 mm 0 m/s 752 mmHg 96%
    10:00 +21°C° 0.2 mm 0 m/s 752 mmHg 95%
    11:00 +23°C° 0.2 mm 1 m/s 753 mmHg 94%
    12:00 +22°C° 0 mm 0 m/s 752 mmHg 89%
    13:00 +23°C° 0 mm 0 m/s 751 mmHg 84%
    14:00 +25°C° 0 mm 0 m/s 751 mmHg 80%
    15:00 +25°C° 0 mm 0 m/s 750 mmHg 77%
    16:00 +26°C° 0 mm 0 m/s 749 mmHg 74%
    17:00 +27°C° 0 mm 0 m/s 748 mmHg 72%
    18:00 +25°C° 0 mm 0 m/s 749 mmHg 78%
    19:00 +24°C° 0 mm 0 m/s 749 mmHg 85%
    20:00 +22°C° 0 mm 0 m/s 750 mmHg 92%
    21:00 +22°C° 0 mm 0 m/s 750 mmHg 93%
    22:00 +22°C° 0 mm 0 m/s 751 mmHg 94%
    23:00 +22°C° 0 mm 0 m/s 751 mmHg 95%

    24 Februarie, Luni

    Timp Temperatura Precipitaţii Vânt Presiune Umiditate
    00:00 +22°C° 0 mm 0 m/s 751 mmHg 95%
    01:00 +22°C° 0 mm 0 m/s 750 mmHg 95%
    02:00 +21°C° 0 mm 0 m/s 750 mmHg 95%
    03:00 +21°C° 0 mm 0 m/s 750 mmHg 95%
    04:00 +21°C° 0 mm 0 m/s 750 mmHg 96%
    05:00 +21°C° 0 mm 0 m/s 750 mmHg 96%
    06:00 +22°C° 0 mm 0 m/s 750 mmHg 91%
    07:00 +24°C° 0 mm 0 m/s 751 mmHg 86%
    08:00 +25°C° 0 mm 0 m/s 751 mmHg 81%
    09:00 +27°C° 0 mm 0 m/s 751 mmHg 72%
    10:00 +30°C° 0 mm 0 m/s 752 mmHg 63%
    11:00 +34°C° 0 mm 1 m/s 752 mmHg 54%
    12:00 +33°C° 1.3 mm 1 m/s 751 mmHg 64%
    13:00 +32°C° 1.3 mm 1 m/s 750 mmHg 75%
    14:00 +31°C° 1.3 mm 1 m/s 749 mmHg 86%
    15:00 +30°C° 1.8 mm 1 m/s 748 mmHg 88%
    16:00 +30°C° 1.8 mm 1 m/s 748 mmHg 90%
    17:00 +29°C° 1.8 mm 1 m/s 747 mmHg 93%
    18:00 +28°C° 0.2 mm 1 m/s 748 mmHg 94%
    19:00 +27°C° 0.2 mm 1 m/s 748 mmHg 96%
    20:00 +26°C° 0.2 mm 1 m/s 749 mmHg 98%
    21:00 +24°C° 0.3 mm 0 m/s 749 mmHg 98%
    22:00 +24°C° 0.3 mm 0 m/s 750 mmHg 98%
    23:00 +24°C° 0.3 mm 0 m/s 750 mmHg 98%

    25 Februarie, Marţi

    Timp Temperatura Precipitaţii Vânt Presiune Umiditate
    00:00 +23°C° 0 mm 0 m/s 750 mmHg 98%
    01:00 +23°C° 0 mm 0 m/s 750 mmHg 98%
    02:00 +23°C° 0 mm 0 m/s 749 mmHg 98%
    03:00 +23°C° 0 mm 0 m/s 749 mmHg 97%
    04:00 +22°C° 0 mm 0 m/s 749 mmHg 97%
    05:00 +22°C° 0 mm 0 m/s 749 mmHg 97%
    06:00 +22°C° 0.2 mm 0 m/s 750 mmHg 97%
    07:00 +23°C° 0.2 mm 0 m/s 750 mmHg 97%
    08:00 +23°C° 0.2 mm 0 m/s 751 mmHg 96%
    09:00 +26°C° 0 mm 1 m/s 751 mmHg 93%
    10:00 +27°C° 0 mm 1 m/s 751 mmHg 89%
    11:00 +28°C° 0 mm 1 m/s 752 mmHg 86%
    12:00 +30°C° 0.1 mm 1 m/s 751 mmHg 77%
    13:00 +32°C° 0.1 mm 1 m/s 750 mmHg 69%
    14:00 +34°C° 0.1 mm 1 m/s 749 mmHg 61%
    15:00 +33°C° 0.3 mm 1 m/s 748 mmHg 65%
    16:00 +32°C° 0.3 mm 1 m/s 747 mmHg 70%
    17:00 +32°C° 0.3 mm 1 m/s 747 mmHg 74%
    18:00 +30°C° 0 mm 1 m/s 747 mmHg 80%
    19:00 +27°C° 0 mm 0 m/s 747 mmHg 86%
    20:00 +25°C° 0 mm 0 m/s 748 mmHg 91%
    21:00 +25°C° 0 mm 0 m/s 748 mmHg 92%
    22:00 +24°C° 0 mm 0 m/s 749 mmHg 93%
    23:00 +24°C° 0 mm 0 m/s 749 mmHg 94%
    Arată mai mult